TDRS 8

Last updated on Sun Jun 21 2026 00:02:59 GMT+0000 (Coordinated Universal Time)

1 26388U 00034A 26170.62452755 -.00000206 00000+0 00000+0 0 9993 2 26388 12.6858 31.2997 0005140 29.9330 156.0649 1.00277176 95204
UTC large
Height (km)
Speed (km/s)
/
Latitude / Longitude
Inclination (degrees)
Orbital Period (minutes)
Azimuth
Elevation
Range (km)
Doppler Factor

Next 0 passes for location: London (51.5072 / 0.1276)

No passes found over London.
TDRS 8